2023/09/07 00:00:00, 0.7,21.5
2023/09/07 00:10:00, 0.8,21.7
2023/09/07 00:20:00, 0.8,21.9
2023/09/07 00:30:00, 0.8,21.7
2023/09/07 00:40:00, 0.8,21.7
2023/09/07 00:50:00, 0.8,21.7
2023/09/07 01:00:00, 0.8,21.9
2023/09/07 01:10:00, 0.8,21.8
2023/09/07 01:20:00, 0.8,21.8
2023/09/07 01:30:00, 0.8,21.8
2023/09/07 01:40:00, 0.8,21.4
2023/09/07 01:50:00, 0.8,22.1
2023/09/07 02:00:00, 0.7,21.8
2023/09/07 02:10:00, 0.7,22.3
2023/09/07 02:20:00, 0.7,21.7
2023/09/07 02:30:00, 0.7,21.7
2023/09/07 02:40:00, 0.7,21.6
2023/09/07 02:50:00, 0.8,21.5
2023/09/07 03:00:00, 0.8,21.5
2023/09/07 03:10:00, 0.8,21.8
2023/09/07 03:20:00, 0.8,21.9
2023/09/07 03:30:00, 0.8,21.7
2023/09/07 03:40:00, 0.8,21.7
2023/09/07 03:50:00, 0.8,21.4
2023/09/07 04:00:00, 0.8,21.5
2023/09/07 04:10:00, 0.8,21.6
2023/09/07 04:20:00, 0.8,21.5
2023/09/07 04:30:00, 0.8,21.6
2023/09/07 04:40:00, 0.8,21.5
2023/09/07 04:50:00, 0.8,21.4
2023/09/07 05:00:00, 0.8,21.4
2023/09/07 05:10:00, 0.8,21.3
2023/09/07 05:20:00, 0.8,21.2
2023/09/07 05:30:00, 0.8,21.4
2023/09/07 05:40:00, 0.8,21.2
2023/09/07 05:50:00, 0.8,21.5
2023/09/07 06:00:00, 0.8,21.2
2023/09/07 06:10:00, 0.8,21.4
2023/09/07 06:20:00, 0.8,21.3
2023/09/07 06:30:00, 0.8,22.0
2023/09/07 06:40:00, 0.8,25.7
2023/09/07 06:50:00, 0.8,31.0
2023/09/07 07:00:00, 0.7,32.5
2023/09/07 07:10:00, 0.7,31.7
2023/09/07 07:20:00, 0.6,33.6
2023/09/07 07:30:00, 0.6,32.2
2023/09/07 07:40:00, 0.5,31.8
2023/09/07 07:50:00, 0.5,30.9
2023/09/07 08:00:00, 0.5,31.5
2023/09/07 08:10:00, 0.7,30.0
2023/09/07 08:20:00, 0.7,27.7
2023/09/07 08:30:00, 0.5,27.5
2023/09/07 08:40:00, 0.5,27.3
2023/09/07 08:50:00, 0.5,27.6
2023/09/07 09:00:00, 0.7,26.6
2023/09/07 09:10:00, 0.6,26.8
2023/09/07 09:20:00, 0.5,26.9
2023/09/07 09:30:00, 0.5,25.9
2023/09/07 09:40:00, 0.6,25.8
2023/09/07 09:50:00, 0.6,26.2
2023/09/07 10:00:00, 0.6,26.3
2023/09/07 10:10:00, 0.6,27.2
2023/09/07 10:20:00, 0.6,27.0
2023/09/07 10:30:00, 0.7,26.3
2023/09/07 10:40:00, 0.6,25.7
2023/09/07 10:50:00, 0.6,26.3
2023/09/07 11:00:00, 0.6,26.2
2023/09/07 11:10:00, 0.7,26.7
2023/09/07 11:20:00, 0.6,26.0
2023/09/07 11:30:00, 0.6,25.7
2023/09/07 11:40:00, 0.7,25.4
2023/09/07 11:50:00, 0.7,25.8
2023/09/07 12:00:00, 0.7,26.5
2023/09/07 12:10:00, 0.7,26.9
2023/09/07 12:20:00, 0.6,27.0
2023/09/07 12:30:00, 0.6,27.3
2023/09/07 12:40:00, 0.6,26.2
2023/09/07 12:50:00, 0.6,26.1
2023/09/07 13:00:00, 0.6,26.3
2023/09/07 13:10:00, 0.6,26.2
2023/09/07 13:20:00, 0.6,25.7
2023/09/07 13:30:00, 0.8,25.6
2023/09/07 13:40:00, 0.7,25.9
2023/09/07 13:50:00, 0.7,25.9
2023/09/07 14:00:00, 0.7,26.0
2023/09/07 14:10:00, 0.7,26.2
2023/09/07 14:20:00, 0.6,26.0
2023/09/07 14:30:00, 0.7,25.7
2023/09/07 14:40:00, 0.7,25.6
2023/09/07 14:50:00, 0.6,25.7
2023/09/07 15:00:00, 0.6,25.1
2023/09/07 15:10:00, 0.7,24.7
2023/09/07 15:20:00, 0.7,25.0
2023/09/07 15:30:00, 0.7,25.2
2023/09/07 15:40:00, 0.6,25.1
2023/09/07 15:50:00, 0.7,24.7
2023/09/07 16:00:00, 0.7,24.5
2023/09/07 16:10:00, 0.7,25.0
2023/09/07 16:20:00, 0.7,24.3
2023/09/07 16:30:00, 0.6,24.3
2023/09/07 16:40:00, 0.6,24.3
2023/09/07 16:50:00, 0.7,24.1
2023/09/07 17:00:00, 0.7,24.3
2023/09/07 17:10:00, 0.8,24.1
2023/09/07 17:20:00, 0.7,24.1
2023/09/07 17:30:00, 0.7,24.0
2023/09/07 17:40:00, 0.7,24.0
2023/09/07 17:50:00, 0.6,23.8
2023/09/07 18:00:00, 0.6,23.8
2023/09/07 18:10:00, 0.7,23.4
2023/09/07 18:20:00, 0.8,23.2
2023/09/07 18:30:00, 0.8,23.2
2023/09/07 18:40:00, 0.7,22.4
2023/09/07 18:50:00, 0.8,22.7
2023/09/07 19:00:00, 1.7,22.8
2023/09/07 19:10:00, 0.8,22.9
2023/09/07 19:20:00, 0.7,23.0
2023/09/07 19:30:00, 0.8,23.0
2023/09/07 19:40:00, 0.7,23.1
2023/09/07 19:50:00, 0.7,22.8
2023/09/07 20:00:00, 0.7,22.5
2023/09/07 20:10:00, 0.7,22.5
2023/09/07 20:20:00, 0.8,22.2
2023/09/07 20:30:00, 0.7,22.0
2023/09/07 20:40:00, 0.7,21.9
2023/09/07 20:50:00, 0.8,21.6
2023/09/07 21:00:00, 0.7,21.9
2023/09/07 21:10:00, 0.7,21.4
2023/09/07 21:20:00, 0.7,21.4
2023/09/07 21:30:00, 0.7,21.6
2023/09/07 21:40:00, 0.7,21.5
2023/09/07 21:50:00, 1.3,21.5
2023/09/07 22:00:00, 7.0,21.2
2023/09/07 22:10:00, 3.3,21.3
2023/09/07 22:20:00, 0.7,21.4
2023/09/07 22:30:00, 0.8,21.6
2023/09/07 22:40:00, 0.8,21.5
2023/09/07 22:50:00, 0.8,21.6
2023/09/07 23:00:00, 0.8,21.4
2023/09/07 23:10:00, 0.8,21.7
2023/09/07 23:20:00, 0.8,21.9
2023/09/07 23:30:00, 0.8,21.7
2023/09/07 23:40:00, 0.8,21.7
2023/09/07 23:50:00, 0.8,21.7
